Miscellaneous Local Product
Issued by NWS Hastings, NE

Home | Current Version | Previous Version | Graphics & Text | Print | Product List | Glossary On
Versions: 1 2 3 4 5 6 7 8 9 10 11 12 13 14 15 16 17 18 19 20 21 22 23 24 25 26 27 28 29 30 31 32 33 34 35 36 37 38 39 40 41 42 43 44 45 46 47 48 49 50
368
AXUS43 KGID 170602
MISGRI

GID CWA HOURLY WEATHER ROUNDUP
NATIONAL WEATHER SERVICE HASTINGS NE
1200 AM CST SAT FEB 17 2018

NOTE: "FAIR" INDICATES FEW OR NO CLOUDS BELOW 12,000 FEET WITH NO
SIGNIFICANT WEATHER AND/OR OBSTRUCTIONS TO VISIBILITY.

...SOUTH CENTRAL NEBRASKA...

CITY           SKY/WX    TMP DP  RH WIND       PRES   REMARKS
GRAND ISLAND   NOT AVBL
KEARNEY        CLOUDY    27  18  69 S14       29.94F WCI  16
HASTINGS       CLOUDY    27  14  58 S10       29.95F WCI  17
ORD            CLOUDY    28  18  66 SE6       29.91F WCI  22
YORK           CLOUDY    27  16  63 S9        30.00F WCI  17
AURORA         CLOUDY    26  15  61 S12       29.98F WCI  16
LEXINGTON      MOCLDY    30  20  66 S12       29.91F WCI  20
HOLDREGE       CLOUDY    28  19  69 S12       29.92F WCI  18
HEBRON         PTCLDY    29  15  54 S7        30.04F WCI  22

...NEBRASKA PANHANDLE...

CITY           SKY/WX    TMP DP  RH WIND       PRES   REMARKS
CHADRON        MOCLDY    25  20  81 N5        29.81S WCI  19
ALLIANCE       CLOUDY    33  24  69 NW8       29.80F WCI  26
SCOTTSBLUFF    MOCLDY    37  19  48 W21G26    29.83R WCI  26
SIDNEY         CLOUDY    35  22  58 NW9       29.84R WCI  28

...WESTERN AND NORTH CENTRAL NEBRASKA...

CITY           SKY/WX    TMP DP  RH WIND       PRES   REMARKS
VALENTINE      CLOUDY    34  23  64 SW9       29.81R WCI  27
AINSWORTH      CLOUDY    30  23  73 S15G22    29.80F WCI  19
ONEILL         MOCLDY    30  20  66 S14G20    29.88F WCI  20
BROKEN BOW     CLOUDY    30  19  63 S13       29.88F WCI  20
IMPERIAL       CLOUDY    31  22  69 CALM      29.86R
NORTH PLATTE   MOCLDY    31  20  63 S8        29.88R WCI  23
MCCOOK         CLOUDY    30  21  69 S7        29.88F WCI  23

...EASTERN NEBRASKA...

CITY           SKY/WX    TMP DP  RH WIND       PRES   REMARKS
NORFOLK        CLOUDY    27  14  58 S20       29.94F WCI  13
SO SIOUX CITY  CLOUDY    25  14  63 SE8       30.03F WCI  16
TEKAMAH        CLOUDY    25  17  72 S10       30.06F WCI  15
COLUMBUS       CLOUDY    28  16  60 S14       30.02F WCI  17
ALBION         CLOUDY    27  17  65 S12       29.96F WCI  17
OMAHA EPPLEY   CLOUDY    27  13  55 S10       30.09F WCI  17
OFFUTT AFB     CLOUDY    27  16  63 SE3       30.09F
MILLARD        CLOUDY    29  15  55 SE7       30.08F WCI  22
LINCOLN        CLOUDY    26  15  63 S9        30.06F WCI  17
NEBRASKA CITY  CLOUDY    28  15  57 S9        30.09F WCI  19
BEATRICE       CLOUDY    28  14  55 S9        30.07F WCI  19
FALLS CITY     CLOUDY    22   9  57 E3        30.12F

...NORTHERN KANSAS...

CITY           SKY/WX    TMP DP  RH WIND       PRES   REMARKS
GOODLAND       CLOUDY    29  19  66 S10       29.81F WCI  20
HILL CITY      CLOUDY    29  17  61 SE6       29.93F WCI  23
NORTON         CLEAR     28  14  54 SE9       29.90F WCI  20
PHILLIPSBURG   CLEAR     28  16  59 SE8       29.96F WCI  20
SMITH CENTER   CLEAR     27  14  59 SE9       29.98F WCI  17
BELOIT         CLEAR     27  12  54 CALM      30.04F
HAYS           CLOUDY    29  16  58 SE7       29.97F WCI  22
RUSSELL        PTCLDY    33  15  47 S16       29.98F WCI  23
CONCORDIA      PTCLDY    24  12  60 SE6       30.05F WCI  17
SALINA         CLOUDY    33  14  45 SE9       30.06F WCI  25
TOPEKA         CLOUDY    29  16  58 E6        30.13F WCI  23



USA.gov is the U.S. government's official web portal to all federal, state and local government web resources and services.